When you browse on this site, cookies collect data to enhance your experience and personalize the content and advertising you see.
Visit our Privacy Policy to learn more. By continuing to use the site, you agree to this use of cookies and data.
  • In Lithuania
  • List of Countries
  • For 7 days
  • Water Temperature
  • Satellite Maps
  • Weather Map
  • Weather Widgets
  • user-avatar
    Login

    Hourly Weather Gorki

    Today, 22 April, Monday

    Time Temperature Precipitation Wind Pressure Humidity
    00:00 +7°C° 0.3 mm 3 mps 751 mmHg 89%
    01:00 +5°C° 0.3 mm 3 mps 751 mmHg 90%
    02:00 +5°C° 0.3 mm 4 mps 752 mmHg 91%
    03:00 +5°C° 0 mm 4 mps 752 mmHg 92%
    04:00 +5°C° 0 mm 4 mps 752 mmHg 94%
    05:00 +4°C° 0 mm 4 mps 752 mmHg 95%
    06:00 +6°C° 0 mm 5 mps 753 mmHg 90%
    07:00 +7°C° 0 mm 5 mps 753 mmHg 86%
    08:00 +8°C° 0 mm 6 mps 754 mmHg 81%
    09:00 +10°C° 0 mm 6 mps 754 mmHg 71%
    10:00 +11°C° 0 mm 7 mps 754 mmHg 61%
    11:00 +14°C° 0 mm 7 mps 755 mmHg 51%
    12:00 +15°C° 0 mm 7 mps 755 mmHg 47%
    13:00 +16°C° 0 mm 7 mps 755 mmHg 44%
    14:00 +16°C° 0 mm 7 mps 755 mmHg 40%
    15:00 +16°C° 0 mm 7 mps 755 mmHg 41%
    16:00 +15°C° 0 mm 6 mps 755 mmHg 41%
    17:00 +15°C° 0 mm 6 mps 755 mmHg 42%
    18:00 +13°C° 0 mm 5 mps 756 mmHg 46%
    19:00 +12°C° 0 mm 4 mps 756 mmHg 50%
    20:00 +10°C° 0 mm 3 mps 756 mmHg 55%
    21:00 +10°C° 0 mm 4 mps 756 mmHg 54%
    22:00 +8°C° 0 mm 4 mps 757 mmHg 54%
    23:00 +8°C° 0 mm 4 mps 757 mmHg 54%

    Tomorrow, 23 April, Tuesday

    Time Temperature Precipitation Wind Pressure Humidity
    00:00 +7°C° 0 mm 4 mps 757 mmHg 55%
    01:00 +7°C° 0 mm 4 mps 757 mmHg 57%
    02:00 +7°C° 0 mm 4 mps 757 mmHg 58%
    03:00 +6°C° 0 mm 4 mps 757 mmHg 60%
    04:00 +6°C° 0 mm 4 mps 757 mmHg 62%
    05:00 +6°C° 0 mm 4 mps 757 mmHg 64%
    06:00 +7°C° 0 mm 5 mps 757 mmHg 61%
    07:00 +8°C° 0 mm 6 mps 757 mmHg 58%
    08:00 +10°C° 0 mm 6 mps 757 mmHg 55%
    09:00 +11°C° 0 mm 7 mps 757 mmHg 50%
    10:00 +13°C° 0 mm 8 mps 757 mmHg 45%
    11:00 +15°C° 0 mm 8 mps 757 mmHg 40%
    12:00 +16°C° 0 mm 8 mps 757 mmHg 39%
    13:00 +16°C° 0 mm 8 mps 757 mmHg 38%
    14:00 +17°C° 0 mm 8 mps 756 mmHg 37%
    15:00 +16°C° 0 mm 8 mps 756 mmHg 39%
    16:00 +16°C° 0 mm 8 mps 756 mmHg 40%
    17:00 +16°C° 0 mm 7 mps 755 mmHg 42%
    18:00 +15°C° 0 mm 7 mps 755 mmHg 45%
    19:00 +13°C° 0 mm 6 mps 755 mmHg 48%
    20:00 +12°C° 0 mm 5 mps 755 mmHg 52%
    21:00 +11°C° 0 mm 6 mps 755 mmHg 52%
    22:00 +10°C° 0 mm 6 mps 755 mmHg 53%
    23:00 +10°C° 0 mm 6 mps 755 mmHg 54%

    Day after tomorrow, 24 April, Wednesday

    Time Temperature Precipitation Wind Pressure Humidity
    00:00 +9°C° 0 mm 6 mps 755 mmHg 55%
    01:00 +9°C° 0 mm 6 mps 755 mmHg 56%
    02:00 +9°C° 0 mm 6 mps 755 mmHg 57%
    03:00 +8°C° 0 mm 6 mps 755 mmHg 57%
    04:00 +8°C° 0 mm 6 mps 755 mmHg 58%
    05:00 +8°C° 0 mm 6 mps 755 mmHg 59%
    06:00 +9°C° 0 mm 7 mps 755 mmHg 56%
    07:00 +10°C° 0 mm 8 mps 755 mmHg 54%
    08:00 +11°C° 0 mm 9 mps 755 mmHg 51%
    09:00 +12°C° 0 mm 9 mps 755 mmHg 48%
    10:00 +13°C° 0 mm 9 mps 755 mmHg 46%
    11:00 +15°C° 0 mm 9 mps 755 mmHg 43%
    12:00 +16°C° 0 mm 9 mps 755 mmHg 43%
    13:00 +17°C° 0 mm 9 mps 754 mmHg 42%
    14:00 +18°C° 0 mm 9 mps 754 mmHg 42%
    15:00 +17°C° 0 mm 8 mps 754 mmHg 46%
    16:00 +17°C° 0 mm 7 mps 754 mmHg 50%
    17:00 +16°C° 0 mm 6 mps 754 mmHg 54%
    18:00 +15°C° 0 mm 6 mps 754 mmHg 55%
    19:00 +15°C° 0 mm 6 mps 754 mmHg 56%
    20:00 +14°C° 0 mm 6 mps 754 mmHg 56%
    21:00 +13°C° 0 mm 5 mps 754 mmHg 58%
    22:00 +13°C° 0 mm 5 mps 754 mmHg 59%
    23:00 +12°C° 0 mm 5 mps 754 mmHg 60%

    25 April, Thursday

    Time Temperature Precipitation Wind Pressure Humidity
    00:00 +12°C° 0 mm 5 mps 754 mmHg 62%
    01:00 +10°C° 0 mm 5 mps 754 mmHg 64%
    02:00 +10°C° 0 mm 5 mps 754 mmHg 66%
    03:00 +9°C° 0 mm 5 mps 754 mmHg 67%
    04:00 +9°C° 0 mm 5 mps 754 mmHg 68%
    05:00 +9°C° 0 mm 5 mps 754 mmHg 70%
    06:00 +10°C° 0 mm 6 mps 754 mmHg 69%
    07:00 +11°C° 0 mm 6 mps 754 mmHg 68%
    08:00 +13°C° 0 mm 6 mps 754 mmHg 67%
    09:00 +14°C° 0 mm 6 mps 754 mmHg 64%
    10:00 +16°C° 0 mm 6 mps 754 mmHg 60%
    11:00 +18°C° 0 mm 7 mps 753 mmHg 57%
    12:00 +20°C° 0 mm 7 mps 753 mmHg 54%
    13:00 +21°C° 0 mm 7 mps 753 mmHg 52%
    14:00 +22°C° 0 mm 7 mps 753 mmHg 49%
    15:00 +22°C° 0 mm 7 mps 752 mmHg 50%
    16:00 +22°C° 0 mm 7 mps 752 mmHg 50%
    17:00 +21°C° 0 mm 6 mps 752 mmHg 51%
    18:00 +20°C° 0 mm 6 mps 752 mmHg 56%
    19:00 +19°C° 0 mm 5 mps 752 mmHg 60%
    20:00 +16°C° 0 mm 5 mps 752 mmHg 64%
    21:00 +15°C° 0 mm 5 mps 752 mmHg 66%
    22:00 +15°C° 0 mm 5 mps 752 mmHg 67%
    23:00 +14°C° 0 mm 5 mps 752 mmHg 69%

    26 April, Friday

    Time Temperature Precipitation Wind Pressure Humidity
    00:00 +14°C° 0 mm 5 mps 751 mmHg 73%
    01:00 +13°C° 0 mm 5 mps 751 mmHg 77%
    02:00 +13°C° 0 mm 4 mps 751 mmHg 81%
    03:00 +12°C° 0 mm 4 mps 751 mmHg 84%
    04:00 +12°C° 0 mm 4 mps 751 mmHg 86%
    05:00 +11°C° 0 mm 4 mps 750 mmHg 89%
    06:00 +12°C° 0 mm 4 mps 750 mmHg 85%
    07:00 +13°C° 0 mm 4 mps 750 mmHg 82%
    08:00 +15°C° 0 mm 5 mps 750 mmHg 78%
    09:00 +17°C° 0 mm 5 mps 750 mmHg 72%
    10:00 +20°C° 0 mm 5 mps 749 mmHg 65%
    11:00 +22°C° 0 mm 6 mps 749 mmHg 59%
    12:00 +23°C° 0 mm 6 mps 749 mmHg 54%
    13:00 +24°C° 0 mm 6 mps 748 mmHg 50%
    14:00 +27°C° 0 mm 7 mps 748 mmHg 45%
    15:00 +26°C° 0 mm 6 mps 747 mmHg 47%
    16:00 +26°C° 0 mm 6 mps 747 mmHg 49%
    17:00 +26°C° 0 mm 6 mps 747 mmHg 50%
    18:00 +25°C° 0.1 mm 5 mps 747 mmHg 56%
    19:00 +22°C° 0.1 mm 5 mps 747 mmHg 62%
    20:00 +20°C° 0.1 mm 4 mps 747 mmHg 67%
    21:00 +19°C° 0.2 mm 5 mps 747 mmHg 71%
    22:00 +19°C° 0.2 mm 5 mps 747 mmHg 74%
    23:00 +17°C° 0.2 mm 6 mps 747 mmHg 78%

    27 April, Saturday

    Time Temperature Precipitation Wind Pressure Humidity
    00:00 +16°C° 0 mm 5 mps 747 mmHg 80%
    01:00 +17°C° 0 mm 4 mps 747 mmHg 82%
    02:00 +16°C° 0 mm 3 mps 747 mmHg 84%
    03:00 +16°C° 0.1 mm 3 mps 747 mmHg 86%
    04:00 +14°C° 0.1 mm 4 mps 747 mmHg 87%
    05:00 +14°C° 0.1 mm 4 mps 747 mmHg 89%
    06:00 +16°C° 0 mm 3 mps 747 mmHg 86%
    07:00 +17°C° 0 mm 3 mps 747 mmHg 84%
    08:00 +18°C° 0 mm 3 mps 747 mmHg 81%
    09:00 +19°C° 0 mm 3 mps 747 mmHg 76%
    10:00 +20°C° 0 mm 3 mps 748 mmHg 71%
    11:00 +22°C° 0 mm 3 mps 748 mmHg 66%
    12:00 +21°C° 0.1 mm 3 mps 748 mmHg 65%
    13:00 +21°C° 0.1 mm 4 mps 748 mmHg 65%
    14:00 +21°C° 0.1 mm 4 mps 748 mmHg 65%
    15:00 +21°C° 0 mm 4 mps 748 mmHg 66%
    16:00 +20°C° 0 mm 4 mps 748 mmHg 67%
    17:00 +20°C° 0 mm 4 mps 748 mmHg 68%
    18:00 +18°C° 0 mm 4 mps 749 mmHg 71%
    19:00 +17°C° 0 mm 3 mps 749 mmHg 75%
    20:00 +16°C° 0 mm 3 mps 749 mmHg 79%
    21:00 +16°C° 0 mm 3 mps 750 mmHg 79%
    22:00 +14°C° 0 mm 3 mps 750 mmHg 79%
    23:00 +14°C° 0 mm 4 mps 750 mmHg 80%
    Show more